Theta_e
313 317 317 314 315 314 315 317 319 318 316 316 317 317 317 314 314 314 315 314 316 318 315 318 321 329 329 330 331 331 330 330 329 330 329 328 328 329 330 329 329 329 327 328
314 315 312 312 314 315 317 319 320 317 316 316 318 316 315 313 313 311 311 313 314 314 314 313 313 313 314 327 329 329 329 330 329 330 328 329 329 329 330 330 330 329 329 329
313 312 310 311 315 317 317 321 318 317 317 317 317 317 314 312 311 311 310 310 312 313 313 312 311 310 310 310 318 326 329 329 329 328 328 329 329 328 329 329 329 329 329 330
312 310 310 312 315 314 317 315 315 319 320 325 315 324 314 310 311 310 309 307 310 311 310 310 310 309 307 308 309 315 322 323 328 329 329 328 328 329 330 329 329 328 329 329
312 309 310 312 311 312 315 313 315 318 322 322 318 323 317 313 313 309 308 309 311 310 310 310 309 308 307 307 307 309 311 316 319 324 325 327 328 328 328 327 327 328 328 328
310 309 309 311 310 312 312 315 316 318 320 327 318 320 318 313 311 307 307 311 311 310 310 310 309 308 308 308 308 307 307 309 310 312 316 318 318 321 324 323 324 323 323 323
312 311 309 309 312 313 313 317 326 327 325 321 314 317 315 311 309 309 310 312 312 310 310 310 309 309 308 308 308 308 308 307 308 309 310 310 311 312 314 317 318 319 319 320
313 314 311 310 311 312 313 314 319 324 322 318 313 315 315 309 307 308 309 307 308 311 309 309 308 308 308 308 309 309 309 309 309 309 309 310 310 310 311 312 313 313 314 315
312 311 309 309 309 310 312 314 311 317 314 317 314 313 310 309 308 308 307 306 306 305 306 307 307 306 306 307 308 309 309 310 310 308 309 308 309 310 310 310 311 311 312 312
311 311 309 309 310 309 311 310 315 318 322 319 314 312 311 310 309 307 306 305 304 303 302 302 302 302 302 302 302 303 304 307 308 310 309 309 309 310 311 311 310 310 311 311
310 309 311 310 312 312 313 313 312 312 314 316 316 312 308 309 306 305 303 302 301 301 301 300 300 300 300 300 300 300 301 301 301 302 302 302 304 306 307 308 308 309 308 308
309 310 312 311 307 307 310 312 312 313 314 311 313 313 308 307 303 302 301 301 301 300 300 300 300 299 299 299 299 298 298 299 301 301 301 301 301 302 304 305 306 306 307 308
309 311 314 312 310 308 311 311 311 311 310 313 315 314 308 306 303 301 301 301 300 300 300 300 300 300 299 298 298 298 298 298 299 300 301 301 301 301 301 302 303 303 304 304
308 309 311 313 309 308 310 310 311 312 314 312 311 311 309 306 303 301 301 301 300 300 300 300 300 300 299 299 298 298 298 298 298 299 300 301 301 300 301 301 301 301 300 300
308 310 308 308 307 305 306 308 309 311 312 311 311 311 309 307 303 302 301 301 300 299 299 299 299 299 299 299 298 298 297 297 298 298 298 298 299 300 300 300 300 300 300 299
304 309 304 306 306 304 302 304 305 307 310 311 309 310 309 306 303 302 301 300 299 299 299 299 299 298 298 297 297 297 296 296 297 298 297 297 298 299 299 299 299 299 298 298
304 306 305 307 298 298 302 299 305 305 308 310 311 310 307 304 303 302 301 300 299 299 299 299 298 298 297 297 296 296 295 295 296 296 296 297 297 298 298 298 298 298 298 298
301 302 302 305 299 303 301 298 298 304 306 309 307 308 306 304 304 302 301 300 299 299 299 299 298 298 297 296 296 295 295 295 295 295 295 296 297 297 297 297 298 298 297 296
300 300 302 304 304 304 298 296 297 301 304 305 308 306 306 303 302 301 300 299 299 299 298 298 297 297 296 296 295 295 295 295 295 295 294 295 296 296 297 297 297 297 297 297
298 298 302 298 302 302 299 297 297 298 301 303 305 302 302 302 303 302 299 299 298 298 297 297 297 296 296 296 295 294 295 295 295 294 294 294 295 295 296 297 297 297 296 296
300 300 302 302 301 304 299 298 298 301 301 301 304 302 301 301 301 302 300 298 297 297 296 296 296 295 295 294 294 294 294 295 294 294 294 293 294 295 295 296 297 297 296 296
302 303 301 302 301 301 297 297 298 300 298 299 302 302 301 299 297 298 297 297 296 297 296 294 295 294 295 294 294 294 294 294 294 294 294 295 293 294 294 295 296 296 295 295
301 302 303 302 301 297 297 299 299 298 300 299 299 299 300 297 297 298 298 297 297 296 294 294 294 294 295 294 293 293 293 293 293 294 295 294 295 294 293 294 294 294 294 293
297 298 298 297 299 297 296 297 297 297 299 299 299 299 298 298 298 297 296 295 295 294 294 293 293 293 293 293 293 293 292 293 293 293 294 294 294 295 295 293 293 294 294 292
299 297 299 298 298 296 297 297 297 297 297 297 297 297 298 298 296 296 295 294 294 294 293 292 293 293 292 292 291 290 290 290 290 291 292 293 293 293 293 293 293 293 294 294
296 298 298 299 299 299 300 298 298 298 297 298 296 294 295 297 297 294 295 294 293 293 293 292 291 290 290 289 289 288 287 287 288 288 289 289 289 290 290 291 291 292 292 292
Wind_Speed
2 5 4 9 8 8 11 15 16 16 10 2 12 9 4 7 12 14 12 11 9 8 9 14 15 7 16 20 19 23 21 19 21 19 18 18 22 17 16 15 15 13 14 14
4 5 5 7 8 6 9 11 8 9 4 3 11 6 9 10 12 11 12 13 10 9 10 8 18 25 28 5 15 16 16 16 21 20 20 14 19 19 17 15 13 14 15 16
6 4 6 7 8 8 7 4 5 5 5 8 5 1 5 8 11 11 15 13 11 11 8 11 20 27 29 31 23 4 17 16 18 18 17 17 15 14 13 13 12 15 15 16
6 2 6 8 6 7 7 4 11 8 4 2 2 1 3 5 10 16 16 13 11 10 3 14 20 28 31 32 31 20 13 10 11 15 18 18 14 13 13 13 10 8 7 10
3 6 9 7 5 9 7 16 11 4 2 3 8 3 3 4 7 8 11 11 6 6 17 12 19 26 32 36 32 27 23 19 13 4 5 7 8 5 6 5 5 5 6 7
11 4 3 5 13 8 11 10 3 6 2 1 9 6 4 6 6 7 7 6 8 15 14 7 21 28 29 35 31 28 25 22 24 22 18 16 15 8 11 9 7 3 5 4
4 7 2 3 9 2 13 11 2 4 1 4 9 5 3 10 8 9 10 12 7 7 8 11 15 21 23 26 26 22 25 22 20 19 19 21 19 17 14 12 12 9 4 4
3 3 4 7 3 4 8 5 4 5 4 3 7 7 7 10 7 6 7 7 8 7 7 12 13 13 20 20 23 22 20 23 21 17 16 18 13 15 14 12 9 4 5 4
3 3 0 0 2 4 4 4 2 3 1 2 2 3 2 7 9 10 10 10 11 11 13 11 12 12 10 13 14 15 19 22 20 21 18 14 16 16 13 4 4 6 6 4
2 6 2 3 3 3 3 4 1 2 4 2 3 3 5 6 7 9 10 12 13 13 14 11 10 12 13 10 8 9 10 9 13 15 15 16 16 13 10 9 8 8 8 5
3 2 0 4 4 4 1 1 2 2 3 3 1 4 4 6 5 7 8 10 11 11 10 9 12 12 13 12 10 7 7 8 8 12 13 11 8 6 4 3 3 3 2 0
3 4 4 2 1 1 1 2 2 3 1 2 3 4 4 7 6 6 7 7 8 9 8 8 12 14 14 13 11 11 12 12 11 8 7 8 8 7 6 5 3 2 4 6
1 1 4 2 2 2 0 1 2 4 2 3 2 5 6 8 8 6 5 5 6 7 9 9 12 12 11 12 12 13 14 13 12 11 10 12 13 13 11 11 11 11 10 8
1 3 6 4 4 2 3 2 2 3 2 1 4 9 12 10 10 8 7 4 5 6 7 8 8 11 12 12 12 12 13 13 13 11 10 7 6 7 6 6 5 4 4 4
2 3 3 9 7 6 6 7 7 6 5 4 3 8 14 14 13 11 8 6 5 5 7 7 7 10 11 12 12 13 13 12 12 11 11 11 9 7 5 4 4 4 3 3
3 1 1 3 6 6 5 11 10 10 9 7 4 5 11 12 11 10 10 8 6 6 6 6 7 9 9 9 10 11 12 14 14 13 13 13 12 10 7 6 5 5 4 3
3 3 2 3 3 5 6 12 15 8 8 9 8 7 13 13 13 12 9 6 6 5 4 4 4 5 5 6 7 8 10 12 13 14 15 15 14 12 10 8 7 7 7 7
4 3 1 3 3 5 1 2 1 12 9 11 1 8 15 13 11 10 9 8 5 3 4 4 6 7 7 7 7 9 10 11 11 12 13 14 15 14 13 11 7 6 5 4
4 4 2 3 4 8 10 6 5 8 10 12 11 10 11 11 10 8 8 5 5 3 1 1 3 5 6 7 9 12 12 12 10 12 13 13 13 13 13 12 10 9 9 9
3 5 5 2 4 4 2 5 3 4 6 15 13 14 16 14 9 8 12 8 6 2 1 0 2 3 4 5 8 11 12 12 12 12 12 12 13 12 12 11 10 9 9 9
4 3 9 7 6 7 4 8 6 5 1 14 15 15 15 9 2 12 11 8 4 2 2 0 1 3 5 8 9 11 11 10 14 12 11 11 10 10 8 7 6 6 7 8
10 9 5 5 5 10 10 7 7 1 3 9 10 12 12 6 8 9 8 6 6 3 3 3 3 3 5 6 7 9 10 12 13 13 13 14 14 14 13 12 9 8 8 8
6 7 6 9 6 2 13 1 7 2 5 7 9 8 11 9 7 8 6 5 4 2 0 1 3 6 7 7 10 14 16 18 19 19 18 16 16 15 14 14 14 12 11 10
6 6 4 3 8 13 8 10 4 4 5 7 7 11 9 9 8 6 5 4 3 2 1 2 4 6 10 12 13 13 15 16 18 20 22 23 22 21 20 18 18 17 18 17
5 11 8 5 7 4 10 11 10 7 3 5 6 5 7 7 7 6 5 5 5 3 2 1 6 8 10 12 14 14 14 14 17 19 21 24 25 27 27 27 26 26 27 27
8 8 8 7 8 9 4 14 13 12 10 9 8 5 4 7 7 8 5 7 5 3 2 2 3 5 8 12 16 18 19 19 18 20 21 21 23 23 23 24 27 31 31 32
Wind_Direction
168 271 334 336 338 316 293 303 307 314 323 282 251 222 273 28 23 7 359 4 345 24 9 13 20 193 182 187 187 187 184 194 193 192 185 202 211 215 214 219 219 223 221 219
222 260 7 324 315 305 311 295 307 308 339 251 55 44 42 40 29 22 9 9 1 28 23 30 51 47 32 146 193 190 194 195 196 195 204 207 214 215 219 221 224 223 224 226
282 352 332 316 319 341 328 246 299 279 289 72 7 53 357 11 3 21 26 2 12 26 12 65 56 49 38 23 16 93 198 197 201 204 204 211 219 227 215 221 222 224 230 235
279 307 310 318 319 344 317 349 326 326 255 319 15 310 29 336 357 19 15 10 355 40 306 51 62 56 43 26 17 35 71 103 173 201 204 203 197 203 208 218 220 217 222 239
48 312 325 311 351 326 280 325 307 309 346 240 7 318 22 336 359 1 14 14 276 47 51 23 67 60 52 41 25 23 38 63 66 110 127 196 197 178 180 202 210 225 219 209
277 322 280 308 308 284 290 297 238 239 245 154 360 336 47 4 328 316 326 306 359 41 44 357 61 59 53 45 36 28 28 45 55 57 66 65 62 60 116 89 103 123 141 116
258 229 299 291 316 156 342 341 245 228 353 37 357 26 47 336 350 321 306 316 351 54 36 33 40 50 52 41 35 26 32 34 51 52 51 63 58 54 43 62 52 42 41 93
322 207 343 14 23 315 321 356 12 326 349 9 23 11 6 352 7 337 285 29 18 51 49 41 36 40 60 52 43 24 18 24 31 39 48 59 57 61 45 31 43 30 44 32
309 231 269 153 324 309 354 40 4 298 295 248 54 135 108 22 35 46 38 49 46 46 43 49 37 36 31 50 48 32 24 33 17 18 26 33 36 33 36 0 20 356 348 357
32 292 75 341 247 194 328 341 185 206 302 7 90 59 81 39 29 33 35 36 38 43 52 43 45 41 36 38 32 0 339 18 353 4 352 10 26 19 5 338 343 308 293 307
312 275 66 256 28 22 70 47 334 283 319 332 150 102 40 86 52 49 44 43 43 50 50 52 50 47 49 40 36 20 10 8 360 338 339 343 358 13 344 327 357 306 313 281
37 315 281 342 12 348 348 23 296 291 60 16 327 114 117 103 94 87 71 49 49 50 48 52 52 46 42 36 31 27 24 19 7 350 350 350 351 356 354 346 359 326 14 15
112 240 291 219 178 198 327 18 307 280 260 226 260 133 142 132 132 116 97 75 54 44 41 41 46 48 47 41 34 26 22 17 15 0 356 357 354 354 352 0 359 3 11 8
297 306 267 307 354 340 274 262 276 288 266 167 249 137 165 164 159 151 140 117 68 53 49 49 41 34 33 35 32 29 27 22 16 15 18 11 359 351 349 352 353 346 354 0
245 259 252 283 280 271 272 271 267 253 264 253 70 194 177 175 168 162 147 138 125 85 60 50 42 31 25 22 21 22 26 22 19 22 19 11 4 350 342 333 331 333 342 333
180 233 321 268 248 259 272 265 257 249 254 256 254 204 163 165 154 155 161 156 128 103 74 44 34 32 28 22 15 9 7 12 16 17 17 13 11 8 355 340 328 328 325 322
184 181 181 256 323 299 258 241 219 216 212 215 200 189 166 167 172 165 166 160 129 96 63 44 35 29 14 12 5 4 359 6 14 13 11 12 12 8 3 350 339 331 331 329
155 155 210 300 294 245 70 116 345 229 226 218 172 166 175 173 164 157 159 156 128 55 17 3 359 359 1 350 353 356 2 4 7 4 7 7 7 4 1 356 343 325 312 302
225 181 227 250 235 312 269 202 179 175 238 219 206 171 172 142 139 167 166 161 131 149 170 311 330 322 332 331 336 342 349 348 349 350 354 359 359 358 357 353 341 323 314 310
203 258 239 159 255 257 31 153 163 152 263 190 186 172 161 161 178 183 170 173 174 153 55 19 246 261 305 335 333 338 340 339 341 338 343 348 350 349 348 342 337 325 310 296
164 203 220 218 252 279 204 147 166 169 300 168 176 171 164 174 93 129 148 153 139 143 164 264 317 343 341 341 345 339 333 330 329 323 322 325 323 324 323 315 303 296 291 287
178 179 187 189 230 259 146 129 205 50 102 154 180 166 165 125 123 134 142 139 150 146 72 30 8 355 347 339 339 337 338 334 334 328 318 315 318 315 312 306 295 279 257 242
212 203 179 205 215 111 190 1 197 308 160 166 170 167 162 144 150 151 148 144 128 103 90 360 311 317 335 335 340 332 337 331 327 324 318 314 302 299 297 294 295 284 265 253
235 200 213 148 229 231 211 224 251 225 196 156 156 160 155 161 161 148 124 151 159 180 212 298 318 331 344 346 348 345 337 328 320 317 316 315 310 302 291 282 275 269 269 261
183 167 184 240 258 284 241 228 209 200 193 143 125 148 168 147 154 149 170 177 191 201 211 310 346 337 338 336 337 344 349 341 333 325 320 316 314 311 304 293 281 271 265 259
184 187 198 226 189 219 216 201 189 176 189 176 153 143 177 169 157 168 182 188 192 183 304 313 294 301 319 332 344 353 351 345 339 324 320 315 309 305 300 295 291 288 277 266